This is the latest recevied weather packets stored in our database for station/object N4ZIQ. If no packets are shown the sender has not sent any weather packets the latest 10 day(s).
| Time | Temp. | Humidity | Pressure | Rain* | Wind** | Luminosity | Snow |
|---|---|---|---|---|---|---|---|
| 1778132445 | 18.33° C | 87% | 1016 hPa | 0 mm | - | 0 W/m² | - |
| 1778132145 | 18.33° C | 87% | 1016 hPa | 0 mm | - | 0 W/m² | - |
| 1778131857 | 18.89° C | 86% | 1016.1 hPa | 0 mm | - | 0 W/m² | - |
| 1778131546 | 18.89° C | 87% | 1016 hPa | 0 mm | - | 0 W/m² | - |
| 1778131248 | 18.89° C | 87% | 1016.1 hPa | 0 mm | - | 0 W/m² | - |
| 1778130955 | 18.33° C | 86% | 1016.2 hPa | 0 mm | - | 0 W/m² | - |
| 1778130645 | 18.33° C | 86% | 1016.3 hPa | 0 mm | - | 0 W/m² | - |
| 1778130349 | 18.89° C | 85% | 1016.4 hPa | 0 mm | - | 0 W/m² | - |
| 1778130053 | 18.89° C | 87% | 1016.6 hPa | 0 mm | - | 0 W/m² | - |
| 1778129748 | 18.33° C | 87% | 1016.6 hPa | 0 mm | - | 0 W/m² | - |
| 1778129445 | 18.33° C | 87% | 1016.7 hPa | 0 mm | - | 0 W/m² | - |
| 1778129156 | 18.33° C | 87% | 1016.9 hPa | 0 mm | - | 0 W/m² | - |
| 1778128844 | 18.33° C | 86% | 1016.8 hPa | 0 mm | - | 0 W/m² | - |
| 1778128546 | 18.33° C | 85% | 1016.7 hPa | 0 mm | - | 0 W/m² | - |
| 1778128249 | 18.89° C | 85% | 1016.6 hPa | 0 mm | - | 0 W/m² | - |
| 1778127945 | 18.89° C | 84% | 1016.6 hPa | 0 mm | - | 0 W/m² | - |
| 1778127646 | 19.44° C | 85% | 1016.7 hPa | 0 mm | - | 0 W/m² | - |
| 1778127351 | 19.44° C | 84% | 1016.6 hPa | 0 mm | - | 0 W/m² | - |
| 1778127045 | 19.44° C | 83% | 1016.6 hPa | 0 mm | - | 0 W/m² | - |
| 1778126746 | 20° C | 81% | 1016.5 hPa | 0 mm | - | 0 W/m² | - |
| 1778126455 | 20.56° C | 80% | 1016.6 hPa | 0 mm | - | 0 W/m² | - |
| 1778126145 | 21.11° C | 78% | 1016.7 hPa | 0 mm | - | 0 W/m² | - |
| 1778125845 | 21.67° C | 76% | 1016.6 hPa | 0 mm | - | 0 W/m² | - |
| 1778125563 | 22.22° C | 76% | 1016.7 hPa | 0 mm | - | 0 W/m² | - |
| 1778125250 | 22.22° C | 76% | 1016.8 hPa | 0 mm | - | 0 W/m² | - |
* Rain latest hour (hover to see other rain measurements)
** Current wind speed in m/s (hover to see current wind gust speed)